• In India
  • List of Countries
  • For 7 days
  • Water Temperature
  • Satellite Maps
  • Weather Map
  • Weather Widgets
  • user-avatar
    Login

    Hourly Weather New Delhi

    Today, 19 July, Thursday

    Time Temperature Precipitation Wind Pressure Humidity
    00:00 +33°C° 0.5 mm 3 mps 729 mmHg 67%
    01:00 +33°C° 0.5 mm 3 mps 729 mmHg 67%
    02:00 +32°C° 0.5 mm 2 mps 729 mmHg 66%
    03:00 +32°C° 0.1 mm 2 mps 729 mmHg 66%
    04:00 +32°C° 0.1 mm 2 mps 729 mmHg 66%
    05:00 +32°C° 0.1 mm 2 mps 729 mmHg 66%
    06:00 +34°C° 0.3 mm 2 mps 729 mmHg 63%
    07:00 +35°C° 0.3 mm 2 mps 729 mmHg 60%
    08:00 +36°C° 0.3 mm 2 mps 730 mmHg 57%
    09:00 +37°C° 0 mm 2 mps 730 mmHg 52%
    10:00 +38°C° 0 mm 2 mps 730 mmHg 47%
    11:00 +40°C° 0 mm 2 mps 729 mmHg 42%
    12:00 +40°C° 0 mm 2 mps 729 mmHg 40%
    13:00 +41°C° 0 mm 2 mps 728 mmHg 39%
    14:00 +41°C° 0 mm 1 mps 727 mmHg 37%
    15:00 +41°C° 0 mm 1 mps 727 mmHg 37%
    16:00 +41°C° 0 mm 1 mps 727 mmHg 38%
    17:00 +41°C° 0 mm 1 mps 726 mmHg 38%
    18:00 +40°C° 0 mm 1 mps 726 mmHg 39%
    19:00 +40°C° 0 mm 1 mps 726 mmHg 41%
    20:00 +39°C° 0 mm 1 mps 726 mmHg 42%
    21:00 +39°C° 0 mm 1 mps 726 mmHg 43%
    22:00 +37°C° 0 mm 1 mps 727 mmHg 44%
    23:00 +37°C° 0 mm 1 mps 727 mmHg 45%

    Tomorrow, 20 July, Friday

    Time Temperature Precipitation Wind Pressure Humidity
    00:00 +37°C° 0 mm 1 mps 727 mmHg 46%
    01:00 +36°C° 0 mm 1 mps 727 mmHg 47%
    02:00 +36°C° 0 mm 1 mps 726 mmHg 48%
    03:00 +36°C° 0.3 mm 1 mps 726 mmHg 49%
    04:00 +35°C° 0.3 mm 1 mps 726 mmHg 50%
    05:00 +35°C° 0.3 mm 1 mps 726 mmHg 51%
    06:00 +36°C° 0.1 mm 1 mps 727 mmHg 50%
    07:00 +37°C° 0.1 mm 1 mps 727 mmHg 48%
    08:00 +39°C° 0.1 mm 1 mps 728 mmHg 46%
    09:00 +40°C° 0 mm 1 mps 728 mmHg 42%
    10:00 +41°C° 0 mm 2 mps 728 mmHg 39%
    11:00 +42°C° 0 mm 2 mps 728 mmHg 36%
    12:00 +42°C° 0 mm 2 mps 727 mmHg 36%
    13:00 +42°C° 0 mm 1 mps 727 mmHg 36%
    14:00 +42°C° 0 mm 1 mps 726 mmHg 36%
    15:00 +42°C° 0 mm 1 mps 726 mmHg 36%
    16:00 +42°C° 0 mm 1 mps 726 mmHg 37%
    17:00 +42°C° 0 mm 1 mps 725 mmHg 37%
    18:00 +41°C° 0.1 mm 1 mps 725 mmHg 39%
    19:00 +41°C° 0.1 mm 1 mps 726 mmHg 40%
    20:00 +40°C° 0.1 mm 1 mps 726 mmHg 42%
    21:00 +39°C° 0.2 mm 2 mps 726 mmHg 46%
    22:00 +38°C° 0.2 mm 2 mps 726 mmHg 49%
    23:00 +37°C° 0.2 mm 3 mps 726 mmHg 53%

    Day after tomorrow, 21 July, Saturday

    Time Temperature Precipitation Wind Pressure Humidity
    00:00 +37°C° 0.1 mm 3 mps 726 mmHg 55%
    01:00 +36°C° 0.1 mm 3 mps 726 mmHg 57%
    02:00 +36°C° 0.1 mm 2 mps 726 mmHg 58%
    03:00 +36°C° 0 mm 2 mps 726 mmHg 60%
    04:00 +35°C° 0 mm 2 mps 726 mmHg 61%
    05:00 +35°C° 0 mm 2 mps 726 mmHg 62%
    06:00 +35°C° 0.4 mm 2 mps 727 mmHg 62%
    07:00 +35°C° 0.4 mm 2 mps 727 mmHg 62%
    08:00 +36°C° 0.4 mm 2 mps 728 mmHg 61%
    09:00 +36°C° 0.6 mm 3 mps 728 mmHg 61%
    10:00 +36°C° 0.6 mm 3 mps 728 mmHg 60%
    11:00 +37°C° 0.6 mm 4 mps 729 mmHg 59%
    12:00 +37°C° 0.6 mm 3 mps 728 mmHg 58%
    13:00 +37°C° 0.6 mm 3 mps 728 mmHg 57%
    14:00 +37°C° 0.6 mm 2 mps 727 mmHg 56%
    15:00 +37°C° 0 mm 2 mps 727 mmHg 55%
    16:00 +38°C° 0 mm 2 mps 726 mmHg 54%
    17:00 +38°C° 0 mm 2 mps 726 mmHg 53%
    18:00 +37°C° 0 mm 2 mps 726 mmHg 54%
    19:00 +37°C° 0 mm 2 mps 726 mmHg 56%
    20:00 +35°C° 0 mm 1 mps 726 mmHg 58%
    21:00 +35°C° 0.1 mm 1 mps 726 mmHg 59%
    22:00 +34°C° 0.1 mm 1 mps 726 mmHg 59%
    23:00 +34°C° 0.1 mm 1 mps 726 mmHg 60%

    22 July, Sunday

    Time Temperature Precipitation Wind Pressure Humidity
    00:00 +34°C° 0.4 mm 1 mps 726 mmHg 62%
    01:00 +34°C° 0.4 mm 1 mps 726 mmHg 63%
    02:00 +33°C° 0.4 mm 1 mps 725 mmHg 65%
    03:00 +34°C° 0.2 mm 2 mps 725 mmHg 66%
    04:00 +34°C° 0.2 mm 2 mps 725 mmHg 66%
    05:00 +34°C° 0.2 mm 3 mps 726 mmHg 66%
    06:00 +34°C° 0.3 mm 3 mps 726 mmHg 65%
    07:00 +34°C° 0.3 mm 4 mps 726 mmHg 64%
    08:00 +34°C° 0.3 mm 4 mps 727 mmHg 63%
    09:00 +35°C° 0.3 mm 4 mps 727 mmHg 59%
    10:00 +36°C° 0.3 mm 3 mps 727 mmHg 56%
    11:00 +37°C° 0.3 mm 3 mps 728 mmHg 52%
    12:00 +37°C° 0.7 mm 3 mps 727 mmHg 54%
    13:00 +37°C° 0.7 mm 3 mps 727 mmHg 55%
    14:00 +36°C° 0.7 mm 3 mps 726 mmHg 57%
    15:00 +35°C° 6.6 mm 3 mps 726 mmHg 63%
    16:00 +34°C° 6.6 mm 3 mps 726 mmHg 69%
    17:00 +33°C° 6.6 mm 3 mps 726 mmHg 75%
    18:00 +31°C° 7.6 mm 3 mps 726 mmHg 79%
    19:00 +31°C° 7.6 mm 3 mps 727 mmHg 82%
    20:00 +30°C° 7.6 mm 3 mps 727 mmHg 86%
    21:00 +30°C° 3 mm 3 mps 727 mmHg 86%
    22:00 +30°C° 3 mm 3 mps 727 mmHg 85%
    23:00 +30°C° 3 mm 3 mps 727 mmHg 85%

    23 July, Monday

    Time Temperature Precipitation Wind Pressure Humidity
    00:00 +30°C° 5.1 mm 3 mps 727 mmHg 85%
    01:00 +30°C° 5.1 mm 2 mps 727 mmHg 85%
    02:00 +30°C° 5.1 mm 2 mps 726 mmHg 85%
    03:00 +30°C° 7.1 mm 2 mps 726 mmHg 84%
    04:00 +29°C° 7.1 mm 2 mps 726 mmHg 84%
    05:00 +29°C° 7.1 mm 2 mps 726 mmHg 84%
    06:00 +30°C° 1.6 mm 2 mps 727 mmHg 83%
    07:00 +30°C° 1.6 mm 2 mps 727 mmHg 81%
    08:00 +30°C° 1.6 mm 2 mps 728 mmHg 79%
    09:00 +30°C° 0.9 mm 2 mps 728 mmHg 78%
    10:00 +31°C° 0.9 mm 2 mps 728 mmHg 76%
    11:00 +31°C° 0.9 mm 2 mps 729 mmHg 74%
    12:00 +31°C° 1.2 mm 2 mps 728 mmHg 73%
    13:00 +32°C° 1.2 mm 2 mps 728 mmHg 72%
    14:00 +32°C° 1.2 mm 2 mps 728 mmHg 71%
    15:00 +32°C° 0.6 mm 2 mps 727 mmHg 70%
    16:00 +32°C° 0.6 mm 1 mps 727 mmHg 69%
    17:00 +33°C° 0.6 mm 1 mps 727 mmHg 67%
    18:00 +32°C° 0.3 mm 1 mps 727 mmHg 70%
    19:00 +32°C° 0.3 mm 1 mps 728 mmHg 73%
    20:00 +31°C° 0.3 mm 1 mps 728 mmHg 76%
    21:00 +31°C° 0.3 mm 1 mps 728 mmHg 77%
    22:00 +30°C° 0.3 mm 2 mps 728 mmHg 79%
    23:00 +30°C° 0.3 mm 2 mps 728 mmHg 80%

    24 July, Tuesday

    Time Temperature Precipitation Wind Pressure Humidity
    00:00 +30°C° 1.2 mm 2 mps 728 mmHg 80%
    01:00 +30°C° 1.2 mm 2 mps 728 mmHg 80%
    02:00 +30°C° 1.2 mm 2 mps 728 mmHg 80%
    03:00 +30°C° 0.8 mm 2 mps 728 mmHg 80%
    04:00 +30°C° 0.8 mm 2 mps 728 mmHg 81%
    05:00 +29°C° 0.8 mm 2 mps 728 mmHg 81%
    06:00 +30°C° 0.6 mm 2 mps 729 mmHg 78%
    07:00 +30°C° 0.6 mm 3 mps 729 mmHg 76%
    08:00 +31°C° 0.6 mm 3 mps 729 mmHg 73%
    09:00 +33°C° 1.5 mm 4 mps 730 mmHg 70%
    10:00 +34°C° 1.5 mm 4 mps 730 mmHg 68%
    11:00 +34°C° 1.5 mm 4 mps 730 mmHg 65%
    12:00 +35°C° 2 mm 4 mps 729 mmHg 64%
    13:00 +35°C° 2 mm 3 mps 729 mmHg 62%
    14:00 +36°C° 2 mm 3 mps 728 mmHg 60%
    15:00 +36°C° 1.8 mm 3 mps 728 mmHg 61%
    16:00 +35°C° 1.8 mm 3 mps 728 mmHg 63%
    17:00 +35°C° 1.8 mm 2 mps 728 mmHg 64%
    18:00 +34°C° 2.4 mm 2 mps 728 mmHg 67%
    19:00 +34°C° 2.4 mm 2 mps 728 mmHg 70%
    20:00 +32°C° 2.4 mm 2 mps 729 mmHg 73%
    21:00 +32°C° 0.3 mm 1 mps 729 mmHg 73%
    22:00 +32°C° 0.3 mm 1 mps 729 mmHg 74%
    23:00 +32°C° 0.3 mm 1 mps 729 mmHg 74%
    Show more